When you browse on this site, cookies collect data to enhance your experience and personalize the content and advertising you see.
Visit our Privacy Policy to learn more. By continuing to use the site, you agree to this use of cookies and data.
  • In Czech Republic
  • List of Countries
  • For 7 days
  • Water Temperature
  • Satellite Maps
  • Weather Map
  • Weather Widgets
  • user-avatar
    Login

    Hourly Weather Andujar

    Today, 18 November, Sunday

    Time Temperature Precipitation Wind Pressure Humidity
    00:00 +16°C° 0 mm 1 mps 737 mmHg 73%
    01:00 +15°C° 0 mm 1 mps 737 mmHg 75%
    02:00 +15°C° 0 mm 1 mps 736 mmHg 76%
    03:00 +14°C° 0 mm 1 mps 736 mmHg 78%
    04:00 +14°C° 0 mm 1 mps 736 mmHg 78%
    05:00 +14°C° 0 mm 1 mps 735 mmHg 78%
    06:00 +14°C° 0 mm 1 mps 735 mmHg 78%
    07:00 +15°C° 0.1 mm 1 mps 735 mmHg 76%
    08:00 +15°C° 0.1 mm 1 mps 735 mmHg 75%
    09:00 +16°C° 0.1 mm 2 mps 735 mmHg 73%
    10:00 +16°C° 0.5 mm 2 mps 734 mmHg 72%
    11:00 +16°C° 0.5 mm 2 mps 734 mmHg 70%
    12:00 +17°C° 0.5 mm 2 mps 734 mmHg 69%
    13:00 +16°C° 1 mm 2 mps 734 mmHg 72%
    14:00 +16°C° 1 mm 1 mps 733 mmHg 76%
    15:00 +15°C° 1 mm 1 mps 733 mmHg 80%
    16:00 +15°C° 1.8 mm 1 mps 733 mmHg 83%
    17:00 +14°C° 1.8 mm 1 mps 733 mmHg 87%
    18:00 +13°C° 1.8 mm 2 mps 733 mmHg 91%
    19:00 +13°C° 0.3 mm 1 mps 733 mmHg 91%
    20:00 +13°C° 0.3 mm 1 mps 733 mmHg 91%
    21:00 +13°C° 0.3 mm 1 mps 733 mmHg 91%
    22:00 +13°C° 0 mm 1 mps 733 mmHg 90%
    23:00 +13°C° 0 mm 1 mps 733 mmHg 90%

    Tomorrow, 19 November, Monday

    Time Temperature Precipitation Wind Pressure Humidity
    00:00 +12°C° 0 mm 1 mps 732 mmHg 90%
    01:00 +12°C° 0.1 mm 1 mps 732 mmHg 90%
    02:00 +12°C° 0.1 mm 1 mps 732 mmHg 90%
    03:00 +12°C° 0.1 mm 1 mps 732 mmHg 90%
    04:00 +11°C° 0.2 mm 0 mps 732 mmHg 91%
    05:00 +11°C° 0.2 mm 0 mps 732 mmHg 92%
    06:00 +11°C° 0.2 mm 0 mps 732 mmHg 92%
    07:00 +11°C° 0.2 mm 0 mps 732 mmHg 90%
    08:00 +12°C° 0.2 mm 0 mps 733 mmHg 88%
    09:00 +12°C° 0.2 mm 0 mps 733 mmHg 85%
    10:00 +14°C° 0.1 mm 1 mps 733 mmHg 82%
    11:00 +15°C° 0.1 mm 2 mps 733 mmHg 79%
    12:00 +15°C° 0.1 mm 2 mps 733 mmHg 76%
    13:00 +16°C° 0.2 mm 2 mps 733 mmHg 75%
    14:00 +16°C° 0.2 mm 3 mps 732 mmHg 75%
    15:00 +16°C° 0.2 mm 3 mps 732 mmHg 74%
    16:00 +14°C° 0.3 mm 3 mps 732 mmHg 79%
    17:00 +13°C° 0.3 mm 3 mps 733 mmHg 84%
    18:00 +13°C° 0.3 mm 2 mps 733 mmHg 88%
    19:00 +13°C° 0.3 mm 2 mps 733 mmHg 89%
    20:00 +13°C° 0.3 mm 2 mps 734 mmHg 90%
    21:00 +12°C° 0.3 mm 3 mps 734 mmHg 91%
    22:00 +13°C° 0.2 mm 2 mps 734 mmHg 91%
    23:00 +12°C° 0.2 mm 2 mps 734 mmHg 92%

    Day after tomorrow, 20 November, Tuesday

    Time Temperature Precipitation Wind Pressure Humidity
    00:00 +12°C° 0.2 mm 2 mps 734 mmHg 92%
    01:00 +12°C° 0 mm 2 mps 734 mmHg 92%
    02:00 +12°C° 0 mm 2 mps 733 mmHg 93%
    03:00 +12°C° 0 mm 2 mps 733 mmHg 93%
    04:00 +12°C° 0.1 mm 2 mps 733 mmHg 92%
    05:00 +10°C° 0.1 mm 2 mps 732 mmHg 92%
    06:00 +11°C° 0.1 mm 1 mps 732 mmHg 91%
    07:00 +12°C° 1.2 mm 1 mps 732 mmHg 90%
    08:00 +12°C° 1.2 mm 2 mps 733 mmHg 90%
    09:00 +12°C° 1.2 mm 2 mps 733 mmHg 89%
    10:00 +13°C° 0.7 mm 2 mps 733 mmHg 87%
    11:00 +12°C° 0.7 mm 3 mps 733 mmHg 84%
    12:00 +13°C° 0.7 mm 4 mps 733 mmHg 82%
    13:00 +13°C° 0.6 mm 5 mps 733 mmHg 80%
    14:00 +13°C° 0.6 mm 6 mps 733 mmHg 78%
    15:00 +12°C° 0.6 mm 7 mps 733 mmHg 76%
    16:00 +11°C° 0.3 mm 6 mps 733 mmHg 79%
    17:00 +11°C° 0.3 mm 6 mps 733 mmHg 82%
    18:00 +10°C° 0.3 mm 5 mps 734 mmHg 85%
    19:00 +10°C° 0.1 mm 5 mps 734 mmHg 86%
    20:00 +10°C° 0.1 mm 5 mps 735 mmHg 88%
    21:00 +10°C° 0.1 mm 5 mps 736 mmHg 89%
    22:00 +11°C° 0.2 mm 4 mps 736 mmHg 90%
    23:00 +11°C° 0.2 mm 4 mps 736 mmHg 91%

    21 November, Wednesday

    Time Temperature Precipitation Wind Pressure Humidity
    00:00 +11°C° 0.2 mm 4 mps 737 mmHg 92%
    01:00 +11°C° 0.1 mm 3 mps 737 mmHg 92%
    02:00 +10°C° 0.1 mm 3 mps 737 mmHg 93%
    03:00 +10°C° 0.1 mm 2 mps 737 mmHg 94%
    04:00 +10°C° 0.1 mm 2 mps 737 mmHg 94%
    05:00 +10°C° 0.1 mm 2 mps 738 mmHg 94%
    06:00 +10°C° 0.1 mm 2 mps 738 mmHg 94%
    07:00 +12°C° 0.1 mm 2 mps 738 mmHg 91%
    08:00 +12°C° 0.1 mm 2 mps 739 mmHg 87%
    09:00 +13°C° 0.1 mm 2 mps 739 mmHg 84%
    10:00 +13°C° 0.3 mm 3 mps 739 mmHg 80%
    11:00 +14°C° 0.3 mm 4 mps 739 mmHg 75%
    12:00 +14°C° 0.3 mm 5 mps 739 mmHg 71%
    13:00 +14°C° 0.1 mm 5 mps 739 mmHg 69%
    14:00 +14°C° 0.1 mm 5 mps 739 mmHg 67%
    15:00 +14°C° 0.1 mm 5 mps 739 mmHg 65%
    16:00 +13°C° 0 mm 4 mps 739 mmHg 71%
    17:00 +12°C° 0 mm 3 mps 740 mmHg 76%
    18:00 +12°C° 0 mm 2 mps 740 mmHg 82%
    19:00 +12°C° 0.1 mm 2 mps 740 mmHg 84%
    20:00 +10°C° 0.1 mm 2 mps 741 mmHg 86%
    21:00 +10°C° 0.1 mm 2 mps 741 mmHg 87%
    22:00 +10°C° 0.1 mm 2 mps 741 mmHg 88%
    23:00 +10°C° 0.1 mm 2 mps 741 mmHg 89%

    22 November, Thursday

    Time Temperature Precipitation Wind Pressure Humidity
    00:00 +11°C° 0.1 mm 1 mps 741 mmHg 89%
    01:00 +11°C° 0.1 mm 1 mps 741 mmHg 90%
    02:00 +11°C° 0.1 mm 1 mps 741 mmHg 90%
    03:00 +10°C° 0.1 mm 1 mps 741 mmHg 91%
    04:00 +10°C° 0.1 mm 1 mps 741 mmHg 91%
    05:00 +10°C° 0.1 mm 1 mps 741 mmHg 91%
    06:00 +10°C° 0.1 mm 1 mps 741 mmHg 91%
    07:00 +11°C° 0 mm 1 mps 742 mmHg 87%
    08:00 +12°C° 0 mm 1 mps 742 mmHg 84%
    09:00 +12°C° 0 mm 1 mps 742 mmHg 80%
    10:00 +13°C° 0.1 mm 2 mps 742 mmHg 74%
    11:00 +13°C° 0.1 mm 3 mps 742 mmHg 68%
    12:00 +14°C° 0.1 mm 3 mps 742 mmHg 62%
    13:00 +14°C° 0.2 mm 3 mps 742 mmHg 65%
    14:00 +13°C° 0.2 mm 3 mps 742 mmHg 68%
    15:00 +13°C° 0.2 mm 3 mps 741 mmHg 71%
    16:00 +13°C° 0.1 mm 2 mps 742 mmHg 76%
    17:00 +12°C° 0.1 mm 2 mps 742 mmHg 80%
    18:00 +11°C° 0.1 mm 1 mps 743 mmHg 85%
    19:00 +11°C° 0 mm 1 mps 743 mmHg 86%
    20:00 +11°C° 0 mm 1 mps 744 mmHg 88%
    21:00 +10°C° 0 mm 1 mps 744 mmHg 89%
    22:00 +10°C° 0 mm 1 mps 744 mmHg 90%
    23:00 +10°C° 0 mm 1 mps 744 mmHg 90%

    23 November, Friday

    Time Temperature Precipitation Wind Pressure Humidity
    00:00 +10°C° 0 mm 1 mps 744 mmHg 90%
    01:00 +9°C° 0 mm 1 mps 744 mmHg 91%
    02:00 +9°C° 0 mm 1 mps 744 mmHg 91%
    03:00 +9°C° 0 mm 1 mps 744 mmHg 91%
    04:00 +9°C° 0 mm 1 mps 744 mmHg 90%
    05:00 +9°C° 0 mm 1 mps 744 mmHg 90%
    06:00 +9°C° 0 mm 1 mps 744 mmHg 89%
    07:00 +10°C° 0 mm 1 mps 745 mmHg 84%
    08:00 +11°C° 0 mm 1 mps 745 mmHg 80%
    09:00 +12°C° 0 mm 1 mps 745 mmHg 75%
    10:00 +13°C° 0 mm 1 mps 745 mmHg 68%
    11:00 +14°C° 0 mm 1 mps 745 mmHg 61%
    12:00 +16°C° 0 mm 1 mps 744 mmHg 55%
    13:00 +16°C° 0 mm 1 mps 744 mmHg 53%
    14:00 +16°C° 0 mm 1 mps 743 mmHg 52%
    15:00 +16°C° 0 mm 1 mps 743 mmHg 51%
    16:00 +15°C° 0 mm 1 mps 743 mmHg 56%
    17:00 +14°C° 0 mm 1 mps 743 mmHg 60%
    18:00 +13°C° 0 mm 1 mps 743 mmHg 65%
    19:00 +12°C° 0 mm 0 mps 743 mmHg 66%
    20:00 +12°C° 0 mm 0 mps 743 mmHg 67%
    21:00 +11°C° 0 mm 0 mps 743 mmHg 69%
    22:00 +11°C° 0.1 mm 0 mps 743 mmHg 71%
    23:00 +12°C° 0.1 mm 1 mps 743 mmHg 72%
    Show more